Date String (YYYY-MM-DD hh:mm:ss) UTC,Instrument flags,Ambient pressure (hPa),Sample flow (lpm),Bypass flow (lpm),Sample temperature (°C),Ambient temperature (°C),ASC tube jacket temperature (°C),LED temperature (°C),Box temperature (°C),Sample RH (%),Span deviation,Mass concentration (μg/m³),Mass concentration (μg/m³),Mass concentration (μg/m³)
DateTimeUTC,F1_M11,P_M11,Q1_M11,Q2_M11,T1_M11,T2_M11,T3_M11,T4_M11,T5_M11,U1_M11,ZSPAN_M11,X0_M11,X2_M11,X1_M11
2022-03-10 12:00:00,,0823.2,4.99,0.00,22.4,22.9,00.0,31.3,24.2,05.1,0000.0,0005.42,0004.19,0004.00
2022-03-10 12:01:00,,0823.2,4.99,0.00,22.4,22.9,00.0,31.3,24.3,05.0,0000.0,0005.29,0004.17,0004.00
2022-03-10 12:02:00,,0823.2,5.01,0.00,22.4,22.6,00.0,31.3,24.3,05.0,0000.0,0005.10,0004.14,0003.99
2022-03-10 12:03:00,,0823.3,5.00,0.00,22.4,22.2,00.0,31.3,24.2,05.0,0000.0,0005.06,0004.13,0003.99
2022-03-10 12:04:00,,0823.3,5.00,0.00,22.4,22.0,00.0,31.3,24.1,05.0,0000.0,0005.01,0004.12,0003.99
2022-03-10 12:05:00,,0823.2,4.99,0.00,22.4,21.8,00.0,31.3,24.1,05.1,0000.0,0005.01,0004.13,0003.99
2022-03-10 12:06:00,,0823.3,5.00,0.00,22.3,21.6,00.0,31.3,24.0,05.1,0000.0,0005.05,0004.13,0003.99
2022-03-10 12:07:00,,0823.3,5.01,0.00,22.3,21.4,00.0,31.3,24.0,05.1,0000.0,0005.08,0004.14,0003.99
2022-03-10 12:08:00,,0823.3,4.99,0.00,22.2,21.3,00.0,31.3,23.9,05.1,0000.0,0005.04,0004.13,0003.98
2022-03-10 12:09:00,,0823.3,4.99,0.00,22.2,21.2,00.0,31.3,23.9,05.1,0000.0,0005.09,0004.12,0003.98
2022-03-10 12:10:00,,0823.3,5.00,0.00,22.2,21.7,00.0,31.3,23.9,05.1,0000.0,0005.12,0004.11,0003.98
2022-03-10 12:11:00,,0823.3,5.01,0.00,22.3,22.5,00.0,31.3,24.2,05.1,0000.0,0005.22,0004.12,0003.98
2022-03-10 12:12:00,,0823.2,4.99,0.00,22.5,23.1,00.0,31.3,24.4,05.0,0000.0,0005.16,0004.11,0003.97
2022-03-10 12:13:00,,0823.2,4.99,0.00,22.6,22.9,00.0,31.4,24.4,05.0,0000.0,0005.14,0004.11,0003.97
2022-03-10 12:14:00,,0823.2,5.01,0.00,22.6,22.6,00.0,31.4,24.4,05.0,0000.0,0005.22,0004.12,0003.98
2022-03-10 12:15:00,,0823.2,5.00,0.00,22.5,22.3,00.0,31.4,24.3,05.0,0000.0,0005.40,0004.16,0003.98
2022-03-10 12:16:00,,0823.2,5.00,0.00,22.5,22.0,00.0,31.4,24.2,05.0,0000.0,0005.44,0004.18,0003.98
2022-03-10 12:17:00,,0823.2,5.00,0.00,22.4,21.8,00.0,31.4,24.1,05.0,0000.0,0005.49,0004.19,0003.98
2022-03-10 12:18:00,,0823.2,4.99,0.00,22.4,21.6,00.0,31.4,24.1,05.0,0000.0,0005.44,0004.19,0003.99
2022-03-10 12:19:00,,0823.2,5.00,0.00,22.4,21.5,00.0,31.3,24.0,05.0,0000.0,0005.41,0004.20,0004.00
2022-03-10 12:20:00,,0823.3,5.00,0.00,22.3,21.4,00.0,31.3,24.0,05.1,0000.0,0005.36,0004.20,0004.01
2022-03-10 12:21:00,,0823.3,5.01,0.00,22.3,21.3,00.0,31.3,23.9,05.1,0000.0,0005.39,0004.22,0004.02
2022-03-10 12:22:00,,0823.4,5.00,0.00,22.3,21.6,00.0,31.3,23.9,05.1,0000.0,0005.33,0004.21,0004.03
2022-03-10 12:23:00,,0823.3,4.99,0.00,22.4,22.3,00.0,31.3,24.1,05.0,0000.0,0005.39,0004.23,0004.04
2022-03-10 12:24:00,,0823.3,5.02,0.00,22.5,23.0,00.0,31.4,24.3,05.0,0000.0,0005.94,0004.25,0004.04
2022-03-10 12:25:00,,0823.4,4.99,0.00,22.6,23.0,00.0,31.4,24.5,05.0,0000.0,0006.22,0004.25,0004.04
2022-03-10 12:26:00,,0823.3,5.00,0.00,22.6,22.7,00.0,31.4,24.4,05.0,0000.0,0006.08,0004.22,0004.03
2022-03-10 12:27:00,,0823.3,5.00,0.00,22.6,22.3,00.0,31.4,24.3,05.0,0000.0,0006.06,0004.21,0004.03
2022-03-10 12:28:00,,0823.4,5.00,0.00,22.5,22.0,00.0,31.4,24.2,05.0,0000.0,0005.97,0004.19,0004.02
2022-03-10 12:29:00,,0823.4,5.00,0.00,22.5,21.8,00.0,31.4,24.2,05.0,0000.0,0005.96,0004.17,0004.01
2022-03-10 12:30:00,,0823.3,4.99,0.00,22.4,21.6,00.0,31.4,24.1,05.0,0000.0,0005.91,0004.16,0004.00
2022-03-10 12:31:00,,0823.2,5.01,0.00,22.4,21.5,00.0,31.4,24.0,05.0,0000.0,0005.95,0004.16,0003.99
2022-03-10 12:32:00,,0823.2,4.99,0.00,22.3,21.3,00.0,31.4,23.9,05.0,0000.0,0005.90,0004.15,0003.98
2022-03-10 12:33:00,,0823.2,4.99,0.00,22.3,21.2,00.0,31.3,23.9,05.1,0000.0,0005.94,0004.16,0003.98
2022-03-10 12:34:00,,0823.2,5.00,0.00,22.3,21.7,00.0,31.4,23.9,05.1,0000.0,0005.96,0004.17,0003.97
2022-03-10 12:35:00,,0823.2,5.00,0.00,22.4,22.4,00.0,31.4,24.2,05.0,0000.0,0005.67,0004.15,0003.95
2022-03-10 12:36:00,,0823.2,5.02,0.00,22.5,23.0,00.0,31.4,24.4,05.0,0000.0,0005.25,0004.15,0003.95
2022-03-10 12:37:00,,0823.2,4.99,0.00,22.6,22.8,00.0,31.4,24.4,05.0,0000.0,0005.30,0004.14,0003.94
2022-03-10 12:38:00,,0823.2,5.01,0.00,22.5,22.3,00.0,31.4,24.3,05.0,0000.0,0005.28,0004.12,0003.92
2022-03-10 12:39:00,,0823.3,4.99,0.00,22.5,22.0,00.0,31.4,24.2,05.0,0000.0,0005.39,0004.11,0003.89
2022-03-10 12:40:00,,0823.2,5.00,0.00,22.4,21.7,00.0,31.4,24.1,05.0,0000.0,0005.52,0004.11,0003.88
2022-03-10 12:41:00,,0823.2,5.01,0.00,22.4,21.5,00.0,31.4,24.0,05.0,0000.0,0005.53,0004.11,0003.87
2022-03-10 12:42:00,,0823.3,5.00,0.00,22.3,21.4,00.0,31.4,24.0,05.0,0000.0,0005.54,0004.10,0003.85
2022-03-10 12:43:00,,0823.2,4.99,0.00,22.3,21.3,00.0,31.3,23.9,05.0,0000.0,0005.64,0004.09,0003.84
2022-03-10 12:44:00,,0823.1,5.01,0.00,22.2,21.1,00.0,31.3,23.9,05.1,0000.0,0005.69,0004.06,0003.82
2022-03-10 12:45:00,,0823.1,4.99,0.00,22.2,21.4,00.0,31.3,23.9,05.1,0000.0,0005.80,0004.05,0003.81
2022-03-10 12:46:00,,0823.1,5.01,0.00,22.3,22.3,00.0,31.3,24.1,05.0,0000.0,0007.40,0004.05,0003.80
2022-03-10 12:47:00,,0823.1,4.99,0.00,22.4,23.0,00.0,31.4,24.3,05.0,0000.0,0007.61,0004.02,0003.79
2022-03-10 12:48:00,,0823.1,4.99,0.00,22.5,23.0,00.0,31.4,24.4,04.9,0000.0,0008.03,0004.01,0003.79
2022-03-10 12:49:00,,0823.1,5.00,0.00,22.5,22.7,00.0,31.4,24.4,04.9,0000.0,0008.17,0004.02,0003.79
2022-03-10 12:50:00,,0823.1,5.00,0.00,22.5,22.3,00.0,31.4,24.3,04.9,0000.0,0008.11,0004.01,0003.80
2022-03-10 12:51:00,,0823.1,4.99,0.00,22.5,22.0,00.0,31.4,24.2,04.9,0000.0,0008.07,0004.02,0003.80
2022-03-10 12:52:00,,0823.1,5.01,0.00,22.4,21.8,00.0,31.4,24.1,04.9,0000.0,0008.08,0004.02,0003.80
2022-03-10 12:53:00,,0823.1,5.00,0.00,22.4,21.6,00.0,31.4,24.1,04.9,0000.0,0008.06,0004.02,0003.80
2022-03-10 12:54:00,,0823.1,5.00,0.00,22.3,21.4,00.0,31.4,24.0,04.9,0000.0,0007.97,0004.01,0003.81
2022-03-10 12:55:00,,0823.0,4.99,0.00,22.3,21.3,00.0,31.3,24.0,04.9,0000.0,0007.89,0003.99,0003.80
2022-03-10 12:56:00,,0823.1,4.99,0.00,22.3,21.3,00.0,31.3,23.9,04.9,0000.0,0007.87,0004.00,0003.80
2022-03-10 12:57:00,,0823.0,5.02,0.00,22.2,21.4,00.0,31.3,23.9,04.9,0000.0,0006.50,0004.00,0003.81
2022-03-10 12:58:00,,0823.0,4.98,0.00,22.3,22.1,00.0,31.3,24.0,04.9,0000.0,0006.07,0004.01,0003.82
2022-03-10 12:59:00,,0823.0,5.02,0.00,22.4,22.8,00.0,31.4,24.3,04.9,0000.0,0005.22,0004.00,0003.82
